Simultaneous Nadir Overpasses (SNOs) Predictions

Prediction of SNOs between LANDSAT-8 and NOAA-19 Satellite Orbit:

Table of predicted SNOs for the next 14.0 days since TLE Epoch: 10/28/2023
Index Date (LANDSAT-8) Time (LANDSAT-8) Lat,Lon (LANDSAT-8) SZA (LANDSAT-8 ) Date (NOAA-19) Time (NOAA-19) Lat,Lon (NOAA-19) SZA (NOAA-19 ) Distance(km) Time Diff (sec)
1 10/29/2023 02:53:39 80.93, 173.75 96.41 10/29/2023 02:53:17 80.92, 173.67 96.38 1.89 22
2 10/29/2023 03:43:06 -80.93, -18.64 83.59 10/29/2023 03:44:11 -80.92, -18.46 83.54 3.24 65
3 10/31/2023 09:16:50 80.92, 77.88 97.14 10/31/2023 09:16:35 80.91, 77.84 97.12 1.18 15
4 10/31/2023 10:06:17 -80.92,-114.49 82.86 10/31/2023 10:07:29 -80.92,-114.43 82.82 1.09 72
5 11/02/2023 15:40:01 80.91, -18.13 97.83 11/02/2023 15:39:53 80.91, -18.09 97.84 1.00 8
6 11/04/2023 22:03:11 80.90,-113.93 98.53 11/04/2023 22:03:11 80.91,-114.09 98.51 2.86 0
7 11/07/2023 04:26:20 80.92, 150.47 99.24 11/07/2023 04:26:27 80.91, 150.56 99.24 1.65 7



Historial Predications of SNOs between LANDSAT-8 and NOAA-19
